Wetterdaten: aktuell Donnerstag, 20.09.2018 12:45
Datum Zeit Temp. A. Feuchte A. Luftdruck Regen Wind Richtung Richtung Sonnenschein Solar Taupunkt Windben
20.09.2018 12:45 23,3 C 62 % 1013,6 hPa 0,0 l/m 4,7 km/h (1 Bft) W 271 5 min 377 W/m 15,6 C 12,9 km/h (3 Bft)
20.09.2018 12:40 23,1 C 63 % 1013,6 hPa 0,0 l/m 5,0 km/h (1 Bft) S-SO 156 5 min 333 W/m 15,7 C 14,5 km/h (3 Bft)
20.09.2018 12:35 23,2 C 62 % 1013,7 hPa 0,0 l/m 5,3 km/h (1 Bft) W 273 5 min 332 W/m 15,5 C 16,1 km/h (3 Bft)
20.09.2018 12:30 23,3 C 63 % 1013,8 hPa 0,0 l/m 4,5 km/h (1 Bft) S 186 5 min 350 W/m 15,9 C 14,5 km/h (3 Bft)
20.09.2018 12:25 23,1 C 63 % 1013,9 hPa 0,0 l/m 5,1 km/h (1 Bft) NO 48 5 min 350 W/m 15,7 C 16,1 km/h (3 Bft)
20.09.2018 12:20 22,9 C 64 % 1014,0 hPa 0,0 l/m 4,3 km/h (1 Bft) W-NW 294 0 min 319 W/m 15,7 C 12,9 km/h (3 Bft)
20.09.2018 12:15 22,7 C 64 % 1014,1 hPa 0,0 l/m 4,8 km/h (1 Bft) S-SW 194 0 min 286 W/m 15,5 C 12,9 km/h (3 Bft)
20.09.2018 12:10 22,7 C 63 % 1014,1 hPa 0,0 l/m 5,1 km/h (1 Bft) SO 143 0 min 204 W/m 15,3 C 17,7 km/h (3 Bft)
20.09.2018 12:05 22,9 C 63 % 1014,1 hPa 0,0 l/m 4,7 km/h (1 Bft) W-SW 256 0 min 240 W/m 15,5 C 11,3 km/h (2 Bft)
20.09.2018 12:00 23,0 C 64 % 1014,1 hPa 0,0 l/m 4,1 km/h (1 Bft) SW 215 0 min 248 W/m 15,8 C 12,9 km/h (3 Bft)
20.09.2018 11:55 23,1 C 63 % 1014,2 hPa 0,0 l/m 5,2 km/h (1 Bft) S 191 0 min 271 W/m 15,7 C 12,9 km/h (3 Bft)
20.09.2018 11:50 23,3 C 62 % 1014,1 hPa 0,0 l/m 5,3 km/h (1 Bft) S 183 5 min 313 W/m 15,6 C 16,1 km/h (3 Bft)
20.09.2018 11:45 23,5 C 62 % 1014,2 hPa 0,0 l/m 5,0 km/h (1 Bft) O-SO 119 5 min 420 W/m 15,8 C 17,7 km/h (3 Bft)
20.09.2018 11:40 23,4 C 62 % 1014,2 hPa 0,0 l/m 6,4 km/h (2 Bft) S-SO 150 5 min 498 W/m 15,7 C 19,3 km/h (3 Bft)
20.09.2018 11:35 23,3 C 63 % 1014,3 hPa 0,0 l/m 4,0 km/h (1 Bft) SO 132 5 min 391 W/m 15,9 C 16,1 km/h (3 Bft)
20.09.2018 11:30 22,9 C 64 % 1014,3 hPa 0,0 l/m 3,4 km/h (1 Bft) W-SW 251 5 min 358 W/m 15,7 C 14,5 km/h (3 Bft)
20.09.2018 11:25 22,9 C 64 % 1014,4 hPa 0,0 l/m 4,8 km/h (1 Bft) S 180 5 min 620 W/m 15,7 C 11,3 km/h (2 Bft)
20.09.2018 11:20 22,8 C 64 % 1014,5 hPa 0,0 l/m 4,8 km/h (1 Bft) S 180 0 min 257 W/m 15,6 C 11,3 km/h (2 Bft)
20.09.2018 11:15 22,8 C 63 % 1014,5 hPa 0,0 l/m 4,8 km/h (1 Bft) W 270 5 min 576 W/m 15,4 C 14,5 km/h (3 Bft)
20.09.2018 11:10 22,5 C 64 % 1014,5 hPa 0,0 l/m 4,8 km/h (1 Bft) S-SW 202 5 min 482 W/m 15,3 C 11,3 km/h (2 Bft)
20.09.2018 11:05 22,4 C 64 % 1014,5 hPa 0,0 l/m 4,8 km/h (1 Bft) S 180 5 min 444 W/m 15,2 C 16,1 km/h (3 Bft)
20.09.2018 11:00 22,3 C 63 % 1014,5 hPa 0,0 l/m 3,2 km/h (1 Bft) SO 135 5 min 418 W/m 14,9 C 11,3 km/h (2 Bft)
20.09.2018 10:55 22,2 C 64 % 1014,5 hPa 0,0 l/m 3,7 km/h (1 Bft) S-SW 200 5 min 415 W/m 15,1 C 8,0 km/h (2 Bft)
20.09.2018 10:50 22,0 C 63 % 1014,7 hPa 0,0 l/m 4,7 km/h (1 Bft) S-SW 196 5 min 403 W/m 14,6 C 9,7 km/h (2 Bft)
20.09.2018 10:45 21,9 C 64 % 1014,7 hPa 0,0 l/m 4,5 km/h (1 Bft) SW 236 5 min 387 W/m 14,8 C 14,5 km/h (3 Bft)
20.09.2018 10:40 21,9 C 65 % 1014,6 hPa 0,0 l/m 3,7 km/h (1 Bft) W-NW 300 5 min 410 W/m 15,0 C 9,7 km/h (2 Bft)
20.09.2018 10:35 21,7 C 65 % 1014,6 hPa 0,0 l/m 4,0 km/h (1 Bft) S 173 5 min 378 W/m 14,8 C 11,3 km/h (2 Bft)
20.09.2018 10:30 21,5 C 66 % 1014,6 hPa 0,0 l/m 3,5 km/h (1 Bft) S-SO 150 5 min 373 W/m 14,9 C 11,3 km/h (2 Bft)
20.09.2018 10:25 21,5 C 66 % 1014,5 hPa 0,0 l/m 3,4 km/h (1 Bft) SO 138 5 min 361 W/m 14,9 C 11,3 km/h (2 Bft)
20.09.2018 10:20 21,4 C 68 % 1014,5 hPa 0,0 l/m 2,7 km/h (1 Bft) NW 313 5 min 390 W/m 15,2 C 9,7 km/h (2 Bft)
20.09.2018 10:15 21,1 C 69 % 1014,5 hPa 0,0 l/m 2,6 km/h (1 Bft) S-SO 147 5 min 391 W/m 15,2 C 8,0 km/h (2 Bft)
20.09.2018 10:10 20,7 C 69 % 1014,6 hPa 0,0 l/m 4,3 km/h (1 Bft) S 180 5 min 373 W/m 14,8 C 11,3 km/h (2 Bft)
20.09.2018 10:05 20,5 C 69 % 1014,5 hPa 0,0 l/m 3,1 km/h (1 Bft) S-SW 207 5 min 325 W/m 14,6 C 8,0 km/h (2 Bft)
20.09.2018 10:00 20,4 C 69 % 1014,5 hPa 0,0 l/m 4,2 km/h (1 Bft) NW 317 5 min 300 W/m 14,5 C 16,1 km/h (3 Bft)
20.09.2018 09:55 20,6 C 69 % 1014,7 hPa 0,0 l/m 3,3 km/h (1 Bft) SO 130 5 min 311 W/m 14,7 C 9,7 km/h (2 Bft)
20.09.2018 09:50 20,6 C 71 % 1014,7 hPa 0,0 l/m 2,1 km/h (1 Bft) W-SW 256 5 min 330 W/m 15,2 C 4,8 km/h (1 Bft)
20.09.2018 09:45 20,2 C 72 % 1014,6 hPa 0,0 l/m 3,1 km/h (1 Bft) S 181 5 min 325 W/m 15,0 C 12,9 km/h (3 Bft)
20.09.2018 09:40 20,1 C 71 % 1014,7 hPa 0,0 l/m 4,4 km/h (1 Bft) W 269 5 min 282 W/m 14,7 C 14,5 km/h (3 Bft)
20.09.2018 09:35 19,9 C 72 % 1014,7 hPa 0,0 l/m 4,1 km/h (1 Bft) W-SW 238 5 min 281 W/m 14,7 C 9,7 km/h (2 Bft)
20.09.2018 09:30 19,6 C 74 % 1014,7 hPa 0,0 l/m 2,7 km/h (1 Bft) S-SW 213 5 min 254 W/m 14,8 C 9,7 km/h (2 Bft)
20.09.2018 09:25 19,4 C 74 % 1014,7 hPa 0,0 l/m 3,0 km/h (1 Bft) S-SW 202 5 min 230 W/m 14,6 C 6,4 km/h (2 Bft)
20.09.2018 09:20 19,2 C 75 % 1014,6 hPa 0,0 l/m 2,2 km/h (1 Bft) S-SO 166 5 min 219 W/m 14,7 C 8,0 km/h (2 Bft)
20.09.2018 09:15 18,8 C 77 % 1014,6 hPa 0,0 l/m 1,8 km/h (1 Bft) O 96 5 min 210 W/m 14,7 C 4,8 km/h (1 Bft)
20.09.2018 09:10 18,4 C 77 % 1014,7 hPa 0,0 l/m 2,1 km/h (1 Bft) SW 214 0 min 153 W/m 14,3 C 4,8 km/h (1 Bft)
20.09.2018 09:05 18,3 C 78 % 1014,7 hPa 0,0 l/m 3,0 km/h (1 Bft) W-NW 292 0 min 94 W/m 14,4 C 6,4 km/h (2 Bft)
20.09.2018 09:00 18,2 C 78 % 1014,7 hPa 0,0 l/m 2,3 km/h (1 Bft) S 182 0 min 69 W/m 14,3 C 4,8 km/h (1 Bft)
20.09.2018 08:55 18,1 C 79 % 1014,6 hPa 0,0 l/m 2,3 km/h (1 Bft) NW 304 0 min 63 W/m 14,4 C 9,7 km/h (2 Bft)
20.09.2018 08:50 17,9 C 78 % 1014,6 hPa 0,0 l/m 2,6 km/h (1 Bft) SW 229 0 min 59 W/m 14,0 C 9,7 km/h (2 Bft)
20.09.2018 08:45 17,9 C 78 % 1014,6 hPa 0,0 l/m 2,1 km/h (1 Bft) SW 221 0 min 56 W/m 14,0 C 4,8 km/h (1 Bft)
20.09.2018 08:40 17,8 C 79 % 1014,6 hPa 0,0 l/m 2,8 km/h (1 Bft) S-SO 158 0 min 54 W/m 14,1 C 6,4 km/h (2 Bft)
20.09.2018 08:35 17,7 C 79 % 1014,7 hPa 0,0 l/m 2,0 km/h (1 Bft) S-SO 150 0 min 52 W/m 14,0 C 4,8 km/h (1 Bft)
20.09.2018 08:30 17,7 C 79 % 1014,7 hPa 0,0 l/m 2,2 km/h (1 Bft) S 190 0 min 47 W/m 14,0 C 8,0 km/h (2 Bft)
20.09.2018 08:25 17,6 C 79 % 1014,7 hPa 0,0 l/m 3,2 km/h (1 Bft) SW 220 0 min 44 W/m 13,9 C 8,0 km/h (2 Bft)
20.09.2018 08:20 17,5 C 79 % 1014,7 hPa 0,0 l/m 1,8 km/h (1 Bft) NW 304 0 min 41 W/m 13,8 C 9,7 km/h (2 Bft)
20.09.2018 08:15 17,4 C 79 % 1014,7 hPa 0,0 l/m 2,9 km/h (1 Bft) SO 145 0 min 36 W/m 13,7 C 14,5 km/h (3 Bft)
20.09.2018 08:10 17,4 C 79 % 1014,6 hPa 0,0 l/m 2,1 km/h (1 Bft) W 273 0 min 33 W/m 13,7 C 8,0 km/h (2 Bft)
20.09.2018 08:05 17,3 C 79 % 1014,7 hPa 0,0 l/m 2,6 km/h (1 Bft) O 80 0 min 29 W/m 13,6 C 11,3 km/h (2 Bft)
20.09.2018 08:00 17,2 C 79 % 1014,7 hPa 0,0 l/m 2,6 km/h (1 Bft) SW 230 0 min 26 W/m 13,5 C 4,8 km/h (1 Bft)
20.09.2018 07:55 17,2 C 80 % 1014,7 hPa 0,0 l/m 1,7 km/h (1 Bft) S-SW 212 0 min 26 W/m 13,7 C 11,3 km/h (2 Bft)
20.09.2018 07:50 17,1 C 80 % 1014,6 hPa 0,0 l/m 1,5 km/h (1 Bft) SW 221 0 min 23 W/m 13,6 C 6,4 km/h (2 Bft)
20.09.2018 07:45 17,1 C 80 % 1014,6 hPa 0,0 l/m 2,0 km/h (1 Bft) S 175 0 min 18 W/m 13,6 C 8,0 km/h (2 Bft)
20.09.2018 07:40 17,0 C 80 % 1014,6 hPa 0,0 l/m 2,0 km/h (1 Bft) SW 229 0 min 17 W/m 13,5 C 4,8 km/h (1 Bft)
20.09.2018 07:35 16,9 C 80 % 1014,6 hPa 0,0 l/m 1,7 km/h (1 Bft) S 178 0 min 14 W/m 13,4 C 4,8 km/h (1 Bft)
20.09.2018 07:30 16,9 C 80 % 1014,6 hPa 0,0 l/m 1,9 km/h (1 Bft) N-NW 329 0 min 15 W/m 13,4 C 4,8 km/h (1 Bft)
20.09.2018 07:25 16,8 C 81 % 1014,4 hPa 0,0 l/m 2,4 km/h (1 Bft) S 183 0 min 12 W/m 13,5 C 4,8 km/h (1 Bft)
20.09.2018 07:20 16,7 C 81 % 1014,4 hPa 0,0 l/m 2,7 km/h (1 Bft) S-SO 166 0 min 9 W/m 13,4 C 6,4 km/h (2 Bft)
20.09.2018 07:15 16,6 C 81 % 1014,5 hPa 0,0 l/m 1,7 km/h (1 Bft) S 172 0 min 5 W/m 13,3 C 4,8 km/h (1 Bft)
20.09.2018 07:10 16,5 C 81 % 1014,4 hPa 0,0 l/m 0,9 km/h (0 Bft) W-SW 256 0 min 2 W/m 13,2 C 3,2 km/h (1 Bft)
20.09.2018 07:05 16,4 C 81 % 1014,4 hPa 0,0 l/m 2,1 km/h (1 Bft) W-SW 252 0 min 0 W/m 13,1 C 6,4 km/h (2 Bft)
20.09.2018 07:00 16,4 C 81 % 1014,5 hPa 0,0 l/m 0,9 km/h (0 Bft) SO 130 0 min 0 W/m 13,1 C 3,2 km/h (1 Bft)
20.09.2018 06:55 16,4 C 81 % 1014,5 hPa 0,0 l/m 1,8 km/h (1 Bft) S 182 0 min 0 W/m 13,1 C 4,8 km/h (1 Bft)
20.09.2018 06:50 16,4 C 81 % 1014,5 hPa 0,0 l/m 1,1 km/h (1 Bft) S-SO 158 0 min 0 W/m 13,1 C 4,8 km/h (1 Bft)
20.09.2018 06:45 16,4 C 81 % 1014,5 hPa 0,0 l/m 1,1 km/h (1 Bft) S 181 0 min 0 W/m 13,1 C 3,2 km/h (1 Bft)
20.09.2018 06:40 16,4 C 80 % 1014,4 hPa 0,0 l/m 1,5 km/h (1 Bft) S 174 0 min 0 W/m 12,9 C 4,8 km/h (1 Bft)
20.09.2018 06:35 16,5 C 80 % 1014,4 hPa 0,0 l/m 1,3 km/h (1 Bft) S-SO 166 0 min 0 W/m 13,0 C 4,8 km/h (1 Bft)
20.09.2018 06:30 16,6 C 80 % 1014,4 hPa 0,0 l/m 0,8 km/h (0 Bft) S 171 0 min 0 W/m 13,1 C 3,2 km/h (1 Bft)
20.09.2018 06:25 16,6 C 80 % 1014,4 hPa 0,0 l/m 0,9 km/h (0 Bft) SW 235 0 min 0 W/m 13,1 C 3,2 km/h (1 Bft)
20.09.2018 06:20 16,7 C 80 % 1014,3 hPa 0,0 l/m 1,7 km/h (1 Bft) SW 236 0 min 0 W/m 13,2 C 6,4 km/h (2 Bft)
20.09.2018 06:15 16,7 C 80 % 1014,3 hPa 0,0 l/m 1,1 km/h (1 Bft) W-NW 290 0 min 0 W/m 13,2 C 3,2 km/h (1 Bft)
20.09.2018 06:10 16,7 C 80 % 1014,3 hPa 0,0 l/m 1,6 km/h (1 Bft) S 180 0 min 0 W/m 13,2 C 6,4 km/h (2 Bft)
20.09.2018 06:05 16,6 C 80 % 1014,3 hPa 0,0 l/m 1,6 km/h (1 Bft) S 180 0 min 0 W/m 13,1 C 4,8 km/h (1 Bft)
20.09.2018 06:00 16,7 C 80 % 1014,3 hPa 0,0 l/m 1,6 km/h (1 Bft) S 180 0 min 0 W/m 13,2 C 4,8 km/h (1 Bft)
20.09.2018 05:55 16,7 C 80 % 1014,4 hPa 0,0 l/m 1,6 km/h (1 Bft) O-SO 112 0 min 0 W/m 13,2 C 3,2 km/h (1 Bft)
20.09.2018 05:50 16,7 C 79 % 1014,4 hPa 0,0 l/m 1,6 km/h (1 Bft) S 180 0 min 0 W/m 13,0 C 3,2 km/h (1 Bft)
20.09.2018 05:45 16,8 C 79 % 1014,3 hPa 0,0 l/m 1,6 km/h (1 Bft) S-SW 202 0 min 0 W/m 13,1 C 4,8 km/h (1 Bft)
20.09.2018 05:40 16,8 C 79 % 1014,3 hPa 0,0 l/m 1,6 km/h (1 Bft) W-SW 247 0 min 0 W/m 13,1 C 4,8 km/h (1 Bft)
20.09.2018 05:35 16,8 C 80 % 1014,3 hPa 0,0 l/m 1,6 km/h (1 Bft) SW 225 0 min 0 W/m 13,3 C 3,2 km/h (1 Bft)
20.09.2018 05:30 16,7 C 80 % 1014,2 hPa 0,0 l/m 1,6 km/h (1 Bft) S-SW 202 0 min 0 W/m 13,2 C 4,8 km/h (1 Bft)
20.09.2018 05:25 16,7 C 80 % 1014,2 hPa 0,0 l/m 1,6 km/h (1 Bft) S 180 0 min 0 W/m 13,2 C 4,8 km/h (1 Bft)
20.09.2018 05:20 16,7 C 80 % 1014,3 hPa 0,0 l/m 1,6 km/h (1 Bft) S-SO 157 0 min 0 W/m 13,2 C 3,2 km/h (1 Bft)
20.09.2018 05:15 16,7 C 80 % 1014,4 hPa 0,0 l/m 1,6 km/h (1 Bft) S-SO 157 0 min 0 W/m 13,2 C 4,8 km/h (1 Bft)
20.09.2018 05:10 16,6 C 80 % 1014,4 hPa 0,0 l/m 1,6 km/h (1 Bft) S-SO 157 0 min 0 W/m 13,1 C 3,2 km/h (1 Bft)
20.09.2018 05:05 16,6 C 80 % 1014,3 hPa 0,0 l/m 1,6 km/h (1 Bft) W-SW 247 0 min 0 W/m 13,1 C 6,4 km/h (2 Bft)
20.09.2018 05:00 16,7 C 80 % 1014,4 hPa 0,0 l/m 1,6 km/h (1 Bft) SO 135 0 min 0 W/m 13,2 C 3,2 km/h (1 Bft)
20.09.2018 04:55 16,7 C 80 % 1014,4 hPa 0,0 l/m 1,6 km/h (1 Bft) SO 135 0 min 0 W/m 13,2 C 3,2 km/h (1 Bft)
20.09.2018 04:50 16,7 C 80 % 1014,3 hPa 0,0 l/m 0,0 km/h (0 Bft) SW 225 0 min 0 W/m 13,2 C 3,2 km/h (1 Bft)
20.09.2018 04:45 16,7 C 80 % 1014,3 hPa 0,0 l/m 1,6 km/h (1 Bft) S 180 0 min 0 W/m 13,2 C 3,2 km/h (1 Bft)
20.09.2018 04:40 16,7 C 79 % 1014,3 hPa 0,0 l/m 0,0 km/h (0 Bft) S-SO 157 0 min 0 W/m 13,0 C 6,4 km/h (2 Bft)
20.09.2018 04:35 16,7 C 79 % 1014,3 hPa 0,0 l/m 1,6 km/h (1 Bft) S-SO 157 0 min 0 W/m 13,0 C 4,8 km/h (1 Bft)
20.09.2018 04:30 16,7 C 79 % 1014,3 hPa 0,0 l/m 0,0 km/h (0 Bft) SO 135 0 min 0 W/m 13,0 C 1,6 km/h (1 Bft)
20.09.2018 04:25 16,8 C 79 % 1014,3 hPa 0,0 l/m 0,0 km/h (0 Bft) SO 135 0 min 0 W/m 13,1 C 1,6 km/h (1 Bft)
20.09.2018 04:20 16,8 C 79 % 1014,3 hPa 0,0 l/m 1,6 km/h (1 Bft) SO 135 0 min 0 W/m 13,1 C 3,2 km/h (1 Bft)
20.09.2018 04:15 16,7 C 80 % 1014,3 hPa 0,0 l/m 1,6 km/h (1 Bft) SO 135 0 min 0 W/m 13,2 C 6,4 km/h (2 Bft)
20.09.2018 04:10 16,6 C 80 % 1014,3 hPa 0,0 l/m 1,6 km/h (1 Bft) S 180 0 min 0 W/m 13,1 C 6,4 km/h (2 Bft)
20.09.2018 04:05 16,6 C 80 % 1014,3 hPa 0,0 l/m 1,6 km/h (1 Bft) S 180 0 min 0 W/m 13,1 C 6,4 km/h (2 Bft)
20.09.2018 04:00 16,5 C 79 % 1014,3 hPa 0,0 l/m 1,6 km/h (1 Bft) W 270 0 min 0 W/m 12,8 C 6,4 km/h (2 Bft)
20.09.2018 03:55 16,6 C 79 % 1014,3 hPa 0,0 l/m 0,0 km/h (0 Bft) S-SO 157 0 min 0 W/m 12,9 C 3,2 km/h (1 Bft)
20.09.2018 03:50 16,7 C 78 % 1014,2 hPa 0,0 l/m 0,0 km/h (0 Bft) S-SO 157 0 min 0 W/m 12,8 C 3,2 km/h (1 Bft)
20.09.2018 03:45 16,9 C 78 % 1014,3 hPa 0,0 l/m 0,0 km/h (0 Bft) S-SO 157 0 min 0 W/m 13,0 C 1,6 km/h (1 Bft)
20.09.2018 03:40 17,0 C 77 % 1014,3 hPa 0,0 l/m 0,0 km/h (0 Bft) S-SO 157 0 min 0 W/m 12,9 C 3,2 km/h (1 Bft)
20.09.2018 03:35 17,2 C 77 % 1014,3 hPa 0,0 l/m 0,0 km/h (0 Bft) N 0 0 min 0 W/m 13,1 C 0,0 km/h (0 Bft)
20.09.2018 03:30 17,2 C 77 % 1014,3 hPa 0,0 l/m 0,0 km/h (0 Bft) S-SO 157 0 min 0 W/m 13,1 C 1,6 km/h (1 Bft)
20.09.2018 03:25 17,3 C 77 % 1014,3 hPa 0,0 l/m 0,0 km/h (0 Bft) S 180 0 min 0 W/m 13,2 C 3,2 km/h (1 Bft)
20.09.2018 03:20 17,3 C 77 % 1014,3 hPa 0,0 l/m 1,6 km/h (1 Bft) S 180 0 min 0 W/m 13,2 C 3,2 km/h (1 Bft)
20.09.2018 03:15 17,3 C 77 % 1014,4 hPa 0,0 l/m 1,6 km/h (1 Bft) S 180 0 min 0 W/m 13,2 C 3,2 km/h (1 Bft)
20.09.2018 03:10 17,3 C 77 % 1014,3 hPa 0,0 l/m 1,6 km/h (1 Bft) S 180 0 min 0 W/m 13,2 C 3,2 km/h (1 Bft)
20.09.2018 03:05 17,2 C 77 % 1014,3 hPa 0,0 l/m 1,6 km/h (1 Bft) W-SW 247 0 min 0 W/m 13,1 C 6,4 km/h (2 Bft)
20.09.2018 03:00 17,2 C 77 % 1014,4 hPa 0,0 l/m 1,6 km/h (1 Bft) S 180 0 min 0 W/m 13,1 C 9,7 km/h (2 Bft)
20.09.2018 02:55 17,1 C 77 % 1014,3 hPa 0,0 l/m 1,6 km/h (1 Bft) S-SO 157 0 min 0 W/m 13,0 C 6,4 km/h (2 Bft)
20.09.2018 02:50 17,1 C 77 % 1014,3 hPa 0,0 l/m 0,0 km/h (0 Bft) S-SO 157 0 min 0 W/m 13,0 C 6,4 km/h (2 Bft)
20.09.2018 02:45 17,2 C 77 % 1014,3 hPa 0,0 l/m 1,6 km/h (1 Bft) S-SO 157 0 min 0 W/m 13,1 C 3,2 km/h (1 Bft)
20.09.2018 02:40 17,2 C 77 % 1014,4 hPa 0,0 l/m 0,0 km/h (0 Bft) W-NW 292 0 min 0 W/m 13,1 C 3,2 km/h (1 Bft)
20.09.2018 02:35 17,2 C 76 % 1014,4 hPa 0,0 l/m 0,0 km/h (0 Bft) W-NW 292 0 min 0 W/m 12,9 C 1,6 km/h (1 Bft)
20.09.2018 02:30 17,3 C 76 % 1014,4 hPa 0,0 l/m 1,6 km/h (1 Bft) W-NW 292 0 min 0 W/m 13,0 C 6,4 km/h (2 Bft)
20.09.2018 02:25 17,4 C 76 % 1014,4 hPa 0,0 l/m 1,6 km/h (1 Bft) O 90 0 min 0 W/m 13,1 C 3,2 km/h (1 Bft)
20.09.2018 02:20 17,4 C 75 % 1014,3 hPa 0,0 l/m 0,0 km/h (0 Bft) O 90 0 min 0 W/m 12,9 C 3,2 km/h (1 Bft)
20.09.2018 02:15 17,6 C 75 % 1014,4 hPa 0,0 l/m 0,0 km/h (0 Bft) N-NO 22 0 min 0 W/m 13,1 C 3,2 km/h (1 Bft)
20.09.2018 02:10 17,6 C 75 % 1014,4 hPa 0,0 l/m 1,6 km/h (1 Bft) S-SO 157 0 min 0 W/m 13,1 C 4,8 km/h (1 Bft)
20.09.2018 02:05 17,7 C 75 % 1014,4 hPa 0,0 l/m 1,6 km/h (1 Bft) S-SW 202 0 min 0 W/m 13,2 C 6,4 km/h (2 Bft)
20.09.2018 02:00 17,7 C 75 % 1014,4 hPa 0,0 l/m 1,6 km/h (1 Bft) S-SO 157 0 min 0 W/m 13,2 C 8,0 km/h (2 Bft)
20.09.2018 01:55 17,6 C 75 % 1014,5 hPa 0,0 l/m 1,6 km/h (1 Bft) S 180 0 min 0 W/m 13,1 C 8,0 km/h (2 Bft)
20.09.2018 01:50 17,5 C 75 % 1014,5 hPa 0,0 l/m 1,6 km/h (1 Bft) S-SO 157 0 min 0 W/m 13,0 C 6,4 km/h (2 Bft)
20.09.2018 01:45 17,4 C 75 % 1014,5 hPa 0,0 l/m 1,6 km/h (1 Bft) S 180 0 min 0 W/m 12,9 C 6,4 km/h (2 Bft)
20.09.2018 01:40 17,3 C 76 % 1014,5 hPa 0,0 l/m 1,6 km/h (1 Bft) S-SO 157 0 min 0 W/m 13,0 C 4,8 km/h (1 Bft)
20.09.2018 01:35 17,2 C 76 % 1014,5 hPa 0,0 l/m 1,6 km/h (1 Bft) S 180 0 min 0 W/m 12,9 C 4,8 km/h (1 Bft)
20.09.2018 01:30 17,1 C 77 % 1014,6 hPa 0,0 l/m 1,6 km/h (1 Bft) S-SO 157 0 min 0 W/m 13,0 C 4,8 km/h (1 Bft)
20.09.2018 01:25 17,1 C 77 % 1014,6 hPa 0,0 l/m 1,6 km/h (1 Bft) S 180 0 min 0 W/m 13,0 C 6,4 km/h (2 Bft)
20.09.2018 01:20 17,0 C 77 % 1014,5 hPa 0,0 l/m 1,6 km/h (1 Bft) S-SO 157 0 min 0 W/m 12,9 C 3,2 km/h (1 Bft)
20.09.2018 01:15 17,0 C 76 % 1014,5 hPa 0,0 l/m 1,6 km/h (1 Bft) SO 135 0 min 0 W/m 12,7 C 4,8 km/h (1 Bft)
20.09.2018 01:10 17,1 C 76 % 1014,5 hPa 0,0 l/m 0,0 km/h (0 Bft) N 0 0 min 0 W/m 12,8 C 0,0 km/h (0 Bft)
20.09.2018 01:05 17,2 C 76 % 1014,5 hPa 0,0 l/m 0,0 km/h (0 Bft) N 0 0 min 0 W/m 12,9 C 0,0 km/h (0 Bft)
20.09.2018 01:00 17,3 C 75 % 1014,5 hPa 0,0 l/m 0,0 km/h (0 Bft) N 0 0 min 0 W/m 12,8 C 0,0 km/h (0 Bft)
20.09.2018 00:55 17,4 C 75 % 1014,6 hPa 0,0 l/m 0,0 km/h (0 Bft) SO 135 0 min 0 W/m 12,9 C 1,6 km/h (1 Bft)
20.09.2018 00:50 17,4 C 75 % 1014,6 hPa 0,0 l/m 0,0 km/h (0 Bft) SO 135 0 min 0 W/m 12,9 C 1,6 km/h (1 Bft)
20.09.2018 00:45 17,5 C 75 % 1014,6 hPa 0,0 l/m 1,6 km/h (1 Bft) SO 135 0 min 0 W/m 13,0 C 3,2 km/h (1 Bft)
20.09.2018 00:40 17,5 C 75 % 1014,6 hPa 0,0 l/m 0,0 km/h (0 Bft) S 180 0 min 0 W/m 13,0 C 1,6 km/h (1 Bft)
20.09.2018 00:35 17,5 C 75 % 1014,6 hPa 0,0 l/m 0,6 km/h (0 Bft) S 172 0 min 0 W/m 13,0 C 3,2 km/h (1 Bft)
20.09.2018 00:30 17,5 C 75 % 1014,6 hPa 0,0 l/m 0,3 km/h (0 Bft) S 172 0 min 0 W/m 13,0 C 1,6 km/h (1 Bft)
20.09.2018 00:25 17,5 C 75 % 1014,7 hPa 0,0 l/m 0,1 km/h (0 Bft) S 172 0 min 0 W/m 13,0 C 1,6 km/h (1 Bft)
20.09.2018 00:20 17,4 C 76 % 1014,6 hPa 0,0 l/m 1,2 km/h (1 Bft) S 172 0 min 0 W/m 13,1 C 4,8 km/h (1 Bft)
20.09.2018 00:15 17,2 C 77 % 1014,7 hPa 0,0 l/m 1,1 km/h (1 Bft) W-SW 238 0 min 0 W/m 13,1 C 4,8 km/h (1 Bft)
20.09.2018 00:10 17,1 C 77 % 1014,8 hPa 0,0 l/m 0,8 km/h (0 Bft) W-NW 283 0 min 0 W/m 13,0 C 3,2 km/h (1 Bft)
20.09.2018 00:05 17,0 C 78 % 1014,8 hPa 0,0 l/m 0,4 km/h (0 Bft) W-NW 296 0 min 0 W/m 13,1 C 1,6 km/h (1 Bft)
20.09.2018 00:00 16,9 C 79 % 1014,7 hPa 0,0 l/m 1,0 km/h (0 Bft) W-NW 296 0 min 0 W/m 13,2 C 6,4 km/h (2 Bft)
19.09.2018 23:55 16,7 C 80 % 1014,7 hPa 0,0 l/m 0,8 km/h (0 Bft) O 100 0 min 0 W/m 13,2 C 3,2 km/h (1 Bft)
19.09.2018 23:50 16,6 C 80 % 1014,6 hPa 0,0 l/m 1,1 km/h (1 Bft) S 186 0 min 0 W/m 13,1 C 4,8 km/h (1 Bft)
19.09.2018 23:45 16,6 C 81 % 1014,5 hPa 0,0 l/m 0,5 km/h (0 Bft) S-SO 155 0 min 0 W/m 13,3 C 1,6 km/h (1 Bft)
19.09.2018 23:40 16,6 C 81 % 1014,5 hPa 0,0 l/m 0,3 km/h (0 Bft) O-SO 121 0 min 0 W/m 13,3 C 1,6 km/h (1 Bft)
19.09.2018 23:35 16,7 C 81 % 1014,6 hPa 0,0 l/m 0,4 km/h (0 Bft) O-SO 119 0 min 0 W/m 13,4 C 3,2 km/h (1 Bft)
19.09.2018 23:30 16,8 C 81 % 1014,6 hPa 0,0 l/m 0,0 km/h (0 Bft) W-SW 257 0 min 0 W/m 13,5 C 0,0 km/h (0 Bft)
19.09.2018 23:25 16,8 C 81 % 1014,6 hPa 0,0 l/m 0,0 km/h (0 Bft) W-SW 257 0 min 0 W/m 13,5 C 0,0 km/h (0 Bft)
19.09.2018 23:20 16,9 C 80 % 1014,6 hPa 0,0 l/m 0,0 km/h (0 Bft) W-SW 257 0 min 0 W/m 13,4 C 0,0 km/h (0 Bft)
19.09.2018 23:15 17,1 C 80 % 1014,6 hPa 0,0 l/m 0,0 km/h (0 Bft) W-SW 257 0 min 0 W/m 13,6 C 0,0 km/h (0 Bft)
19.09.2018 23:10 17,2 C 79 % 1014,7 hPa 0,0 l/m 0,0 km/h (0 Bft) W-SW 257 0 min 0 W/m 13,5 C 0,0 km/h (0 Bft)
19.09.2018 23:05 17,3 C 79 % 1014,7 hPa 0,0 l/m 0,0 km/h (0 Bft) W-SW 257 0 min 0 W/m 13,6 C 1,6 km/h (1 Bft)
19.09.2018 23:00 17,4 C 79 % 1014,6 hPa 0,0 l/m 0,0 km/h (0 Bft) W-SW 257 0 min 0 W/m 13,7 C 0,0 km/h (0 Bft)
19.09.2018 22:55 17,6 C 78 % 1014,6 hPa 0,0 l/m 0,0 km/h (0 Bft) W-SW 257 0 min 0 W/m 13,7 C 0,0 km/h (0 Bft)
19.09.2018 22:50 17,7 C 77 % 1014,6 hPa 0,0 l/m 0,0 km/h (0 Bft) W-SW 257 0 min 0 W/m 13,6 C 0,0 km/h (0 Bft)
19.09.2018 22:45 17,8 C 77 % 1014,5 hPa 0,0 l/m 0,0 km/h (0 Bft) W-SW 257 0 min 0 W/m 13,7 C 0,0 km/h (0 Bft)
19.09.2018 22:40 18,0 C 76 % 1014,5 hPa 0,0 l/m 0,0 km/h (0 Bft) W-SW 257 0 min 0 W/m 13,7 C 0,0 km/h (0 Bft)
19.09.2018 22:35 18,2 C 76 % 1014,5 hPa 0,0 l/m 0,0 km/h (0 Bft) W-SW 257 0 min 0 W/m 13,9 C 0,0 km/h (0 Bft)
19.09.2018 22:30 18,3 C 75 % 1014,5 hPa 0,0 l/m 0,0 km/h (0 Bft) W-SW 257 0 min 0 W/m 13,8 C 0,0 km/h (0 Bft)
19.09.2018 22:25 18,5 C 74 % 1014,5 hPa 0,0 l/m 0,0 km/h (0 Bft) W-SW 257 0 min 0 W/m 13,8 C 0,0 km/h (0 Bft)
19.09.2018 22:20 18,7 C 74 % 1014,5 hPa 0,0 l/m 0,0 km/h (0 Bft) W-SW 257 0 min 0 W/m 14,0 C 0,0 km/h (0 Bft)
19.09.2018 22:15 18,9 C 73 % 1014,4 hPa 0,0 l/m 0,0 km/h (0 Bft) W-SW 257 0 min 0 W/m 13,9 C 0,0 km/h (0 Bft)
19.09.2018 22:10 19,1 C 72 % 1014,4 hPa 0,0 l/m 0,0 km/h (0 Bft) W-SW 257 0 min 0 W/m 13,9 C 0,0 km/h (0 Bft)
19.09.2018 22:05 19,3 C 71 % 1014,4 hPa 0,0 l/m 0,0 km/h (0 Bft) W-SW 257 0 min 0 W/m 13,9 C 0,0 km/h (0 Bft)
19.09.2018 22:00 19,6 C 71 % 1014,3 hPa 0,0 l/m 0,0 km/h (0 Bft) W-SW 257 0 min 0 W/m 14,2 C 0,0 km/h (0 Bft)
19.09.2018 21:55 19,8 C 70 % 1014,3 hPa 0,0 l/m 0,0 km/h (0 Bft) W-SW 257 0 min 0 W/m 14,2 C 0,0 km/h (0 Bft)
19.09.2018 21:50 20,0 C 69 % 1014,3 hPa 0,0 l/m 0,0 km/h (0 Bft) W-SW 257 0 min 0 W/m 14,1 C 0,0 km/h (0 Bft)
19.09.2018 21:45 20,2 C 69 % 1014,3 hPa 0,0 l/m 0,0 km/h (0 Bft) W-SW 257 0 min 0 W/m 14,3 C 0,0 km/h (0 Bft)
19.09.2018 21:40 20,3 C 68 % 1014,2 hPa 0,0 l/m 0,0 km/h (0 Bft) W-SW 257 0 min 0 W/m 14,2 C 0,0 km/h (0 Bft)
19.09.2018 21:35 20,5 C 67 % 1014,1 hPa 0,0 l/m 0,1 km/h (0 Bft) W-SW 257 0 min 0 W/m 14,2 C 1,6 km/h (1 Bft)
19.09.2018 21:30 20,7 C 67 % 1014,1 hPa 0,0 l/m 0,0 km/h (0 Bft) W-SW 257 0 min 0 W/m 14,3 C 0,0 km/h (0 Bft)
19.09.2018 21:25 20,9 C 66 % 1014,1 hPa 0,0 l/m 0,3 km/h (0 Bft) W-SW 257 0 min 0 W/m 14,3 C 3,2 km/h (1 Bft)
19.09.2018 21:20 21,1 C 66 % 1014,1 hPa 0,0 l/m 0,5 km/h (0 Bft) W-SW 257 0 min 0 W/m 14,5 C 3,2 km/h (1 Bft)
19.09.2018 21:15 21,2 C 65 % 1014,1 hPa 0,0 l/m 0,3 km/h (0 Bft) W-NW 290 0 min 0 W/m 14,4 C 1,6 km/h (1 Bft)
19.09.2018 21:10 21,3 C 65 % 1014,1 hPa 0,0 l/m 1,0 km/h (0 Bft) W-NW 290 0 min 0 W/m 14,4 C 4,8 km/h (1 Bft)
19.09.2018 21:05 21,4 C 65 % 1014,1 hPa 0,0 l/m 1,1 km/h (1 Bft) W-SW 253 0 min 0 W/m 14,5 C 3,2 km/h (1 Bft)
19.09.2018 21:00 21,4 C 64 % 1014,1 hPa 0,0 l/m 3,1 km/h (1 Bft) W-SW 242 0 min 0 W/m 14,3 C 11,3 km/h (2 Bft)
19.09.2018 20:55 21,6 C 65 % 1014,0 hPa 0,0 l/m 1,4 km/h (1 Bft) W-NW 299 0 min 0 W/m 14,7 C 3,2 km/h (1 Bft)
19.09.2018 20:51 21,6 C 64 % 1014,0 hPa 0,0 l/m 1,9 km/h (1 Bft) W-NW 297 0 min 0 W/m 14,5 C 4,8 km/h (1 Bft)
19.09.2018 20:45 21,8 C 64 % 1013,9 hPa 0,0 l/m 1,3 km/h (1 Bft) W 272 0 min 0 W/m 14,7 C 4,8 km/h (1 Bft)
19.09.2018 20:40 21,9 C 64 % 1013,9 hPa 0,0 l/m 0,9 km/h (0 Bft) W-SW 256 0 min 0 W/m 14,8 C 3,2 km/h (1 Bft)
19.09.2018 20:35 22,0 C 63 % 1013,7 hPa 0,0 l/m 0,9 km/h (0 Bft) W-SW 256 0 min 0 W/m 14,6 C 4,8 km/h (1 Bft)
19.09.2018 20:30 22,0 C 63 % 1013,6 hPa 0,0 l/m 1,8 km/h (1 Bft) W 260 0 min 0 W/m 14,6 C 4,8 km/h (1 Bft)
19.09.2018 20:25 22,1 C 63 % 1013,6 hPa 0,0 l/m 2,0 km/h (1 Bft) W-SW 241 0 min 0 W/m 14,7 C 6,4 km/h (2 Bft)
19.09.2018 20:20 22,2 C 63 % 1013,5 hPa 0,0 l/m 1,1 km/h (1 Bft) S 169 0 min 0 W/m 14,8 C 3,2 km/h (1 Bft)
19.09.2018 20:15 22,3 C 63 % 1013,5 hPa 0,0 l/m 1,2 km/h (1 Bft) O-SO 111 0 min 0 W/m 14,9 C 3,2 km/h (1 Bft)
19.09.2018 20:10 22,4 C 63 % 1013,4 hPa 0,0 l/m 0,8 km/h (0 Bft) W 271 0 min 0 W/m 15,0 C 3,2 km/h (1 Bft)
19.09.2018 20:05 22,6 C 62 % 1013,4 hPa 0,0 l/m 0,9 km/h (0 Bft) W 271 0 min 0 W/m 14,9 C 4,8 km/h (1 Bft)
19.09.2018 20:00 22,7 C 62 % 1013,4 hPa 0,0 l/m 0,5 km/h (0 Bft) S-SW 206 0 min 0 W/m 15,0 C 3,2 km/h (1 Bft)
19.09.2018 19:55 22,8 C 61 % 1013,4 hPa 0,0 l/m 0,5 km/h (0 Bft) W 275 0 min 0 W/m 14,9 C 3,2 km/h (1 Bft)
19.09.2018 19:50 23,1 C 61 % 1013,4 hPa 0,0 l/m 0,6 km/h (0 Bft) W 275 0 min 0 W/m 15,2 C 3,2 km/h (1 Bft)
19.09.2018 19:45 23,2 C 60 % 1013,3 hPa 0,0 l/m 0,3 km/h (0 Bft) W 259 0 min 0 W/m 15,0 C 3,2 km/h (1 Bft)
19.09.2018 19:40 23,4 C 60 % 1013,2 hPa 0,0 l/m 0,7 km/h (0 Bft) N-NW 340 0 min 0 W/m 15,2 C 3,2 km/h (1 Bft)
19.09.2018 19:35 23,6 C 59 % 1013,2 hPa 0,0 l/m 0,8 km/h (0 Bft) N-NW 341 0 min 0 W/m 15,1 C 3,2 km/h (1 Bft)
19.09.2018 19:30 23,8 C 58 % 1013,1 hPa 0,0 l/m 0,2 km/h (0 Bft) S-SO 161 0 min 0 W/m 15,0 C 3,2 km/h (1 Bft)
19.09.2018 19:25 23,9 C 58 % 1013,1 hPa 0,0 l/m 0,6 km/h (0 Bft) S-SO 161 0 min 3 W/m 15,1 C 3,2 km/h (1 Bft)
19.09.2018 19:20 24,1 C 57 % 1013,1 hPa 0,0 l/m 1,2 km/h (1 Bft) S-SO 147 0 min 8 W/m 15,0 C 3,2 km/h (1 Bft)
19.09.2018 19:15 24,2 C 57 % 1013,0 hPa 0,0 l/m 2,1 km/h (1 Bft) W-NW 298 0 min 12 W/m 15,1 C 6,4 km/h (2 Bft)
19.09.2018 19:10 24,3 C 57 % 1013,0 hPa 0,0 l/m 2,5 km/h (1 Bft) SW 236 5 min 16 W/m 15,2 C 6,4 km/h (2 Bft)
19.09.2018 19:05 24,3 C 56 % 1012,9 hPa 0,0 l/m 3,6 km/h (1 Bft) S-SW 197 0 min 20 W/m 14,9 C 9,7 km/h (2 Bft)
19.09.2018 19:00 24,4 C 57 % 1012,9 hPa 0,0 l/m 2,3 km/h (1 Bft) W 264 0 min 27 W/m 15,3 C 6,4 km/h (2 Bft)
19.09.2018 18:55 24,6 C 56 % 1012,8 hPa 0,0 l/m 1,6 km/h (1 Bft) S-SW 194 0 min 30 W/m 15,2 C 4,8 km/h (1 Bft)
19.09.2018 18:50 24,7 C 56 % 1012,8 hPa 0,0 l/m 1,8 km/h (1 Bft) W-SW 246 0 min 25 W/m 15,3 C 4,8 km/h (1 Bft)
19.09.2018 18:45 24,8 C 55 % 1012,7 hPa 0,0 l/m 1,9 km/h (1 Bft) W 266 0 min 23 W/m 15,1 C 9,7 km/h (2 Bft)
19.09.2018 18:40 24,9 C 55 % 1012,7 hPa 0,0 l/m 1,9 km/h (1 Bft) SO 134 0 min 33 W/m 15,2 C 4,8 km/h (1 Bft)
19.09.2018 18:35 25,0 C 54 % 1012,7 hPa 0,0 l/m 2,1 km/h (1 Bft) S 183 0 min 32 W/m 15,0 C 11,3 km/h (2 Bft)
19.09.2018 18:30 25,1 C 54 % 1012,6 hPa 0,0 l/m 3,1 km/h (1 Bft) S-SW 196 0 min 27 W/m 15,1 C 8,0 km/h (2 Bft)
19.09.2018 18:25 25,2 C 54 % 1012,6 hPa 0,0 l/m 3,3 km/h (1 Bft) S-SO 167 0 min 32 W/m 15,2 C 8,0 km/h (2 Bft)
19.09.2018 18:20 25,4 C 53 % 1012,6 hPa 0,0 l/m 3,3 km/h (1 Bft) SO 145 0 min 34 W/m 15,1 C 8,0 km/h (2 Bft)
19.09.2018 18:15 25,6 C 53 % 1012,6 hPa 0,0 l/m 2,4 km/h (1 Bft) SW 234 0 min 35 W/m 15,3 C 6,4 km/h (2 Bft)
19.09.2018 18:10 25,7 C 52 % 1012,5 hPa 0,0 l/m 2,5 km/h (1 Bft) S 172 0 min 46 W/m 15,1 C 9,7 km/h (2 Bft)
19.09.2018 18:05 25,8 C 52 % 1012,5 hPa 0,0 l/m 2,2 km/h (1 Bft) S-SW 198 0 min 53 W/m 15,2 C 9,7 km/h (2 Bft)
19.09.2018 18:00 25,9 C 51 % 1012,4 hPa 0,0 l/m 2,5 km/h (1 Bft) S-SW 209 0 min 54 W/m 15,0 C 6,4 km/h (2 Bft)
19.09.2018 17:55 26,1 C 51 % 1012,4 hPa 0,0 l/m 3,5 km/h (1 Bft) W-SW 239 0 min 61 W/m 15,2 C 14,5 km/h (3 Bft)
19.09.2018 17:50 26,2 C 51 % 1012,5 hPa 0,0 l/m 3,8 km/h (1 Bft) S-SO 159 0 min 82 W/m 15,2 C 12,9 km/h (3 Bft)
19.09.2018 17:45 26,2 C 50 % 1012,6 hPa 0,0 l/m 5,9 km/h (2 Bft) W-SW 256 0 min 95 W/m 14,9 C 12,9 km/h (3 Bft)
19.09.2018 17:40 26,3 C 50 % 1012,6 hPa 0,0 l/m 3,9 km/h (1 Bft) S 176 5 min 145 W/m 15,0 C 11,3 km/h (2 Bft)
19.09.2018 17:35 26,4 C 50 % 1012,7 hPa 0,0 l/m 4,3 km/h (1 Bft) O-SO 121 5 min 150 W/m 15,1 C 9,7 km/h (2 Bft)
19.09.2018 17:30 26,5 C 49 % 1012,7 hPa 0,0 l/m 5,3 km/h (1 Bft) S 180 5 min 163 W/m 14,9 C 14,5 km/h (3 Bft)
19.09.2018 17:25 26,6 C 49 % 1012,7 hPa 0,0 l/m 3,8 km/h (1 Bft) S 173 5 min 190 W/m 15,0 C 11,3 km/h (2 Bft)
19.09.2018 17:20 26,6 C 49 % 1012,8 hPa 0,0 l/m 4,4 km/h (1 Bft) SW 234 5 min 208 W/m 15,0 C 12,9 km/h (3 Bft)
19.09.2018 17:15 26,6 C 49 % 1012,9 hPa 0,0 l/m 7,0 km/h (2 Bft) S-SO 164 5 min 226 W/m 15,0 C 20,9 km/h (4 Bft)
19.09.2018 17:10 26,6 C 49 % 1012,8 hPa 0,0 l/m 3,7 km/h (1 Bft) W 276 5 min 218 W/m 15,0 C 9,7 km/h (2 Bft)
19.09.2018 17:05 26,4 C 49 % 1012,9 hPa 0,0 l/m 3,8 km/h (1 Bft) S 180 0 min 179 W/m 14,8 C 20,9 km/h (4 Bft)
19.09.2018 17:00 26,6 C 49 % 1012,9 hPa 0,0 l/m 3,2 km/h (1 Bft) SW 235 0 min 146 W/m 15,0 C 8,0 km/h (2 Bft)
19.09.2018 16:55 26,9 C 48 % 1012,9 hPa 0,0 l/m 4,2 km/h (1 Bft) S-SW 197 5 min 258 W/m 14,9 C 11,3 km/h (2 Bft)
19.09.2018 16:50 27,0 C 48 % 1013,0 hPa 0,0 l/m 4,2 km/h (1 Bft) W 265 5 min 244 W/m 15,0 C 19,3 km/h (3 Bft)
19.09.2018 16:45 26,9 C 47 % 1013,1 hPa 0,0 l/m 2,6 km/h (1 Bft) S-SW 211 5 min 275 W/m 14,6 C 8,0 km/h (2 Bft)
19.09.2018 16:40 26,8 C 48 % 1013,1 hPa 0,0 l/m 3,6 km/h (1 Bft) S-SO 148 5 min 304 W/m 14,9 C 9,7 km/h (2 Bft)
19.09.2018 16:35 26,6 C 48 % 1013,1 hPa 0,0 l/m 5,0 km/h (1 Bft) W-NW 301 5 min 333 W/m 14,7 C 14,5 km/h (3 Bft)
19.09.2018 16:30 26,6 C 48 % 1013,2 hPa 0,0 l/m 4,5 km/h (1 Bft) SW 215 5 min 289 W/m 14,7 C 9,7 km/h (2 Bft)
19.09.2018 16:25 26,7 C 49 % 1013,2 hPa 0,0 l/m 3,3 km/h (1 Bft) W-NW 287 5 min 347 W/m 15,1 C 9,7 km/h (2 Bft)
19.09.2018 16:20 26,4 C 48 % 1013,3 hPa 0,0 l/m 5,5 km/h (1 Bft) S-SW 206 5 min 359 W/m 14,5 C 17,7 km/h (3 Bft)
19.09.2018 16:15 26,0 C 49 % 1013,3 hPa 0,0 l/m 3,9 km/h (1 Bft) W 275 0 min 170 W/m 14,4 C 9,7 km/h (2 Bft)
19.09.2018 16:10 26,0 C 49 % 1013,4 hPa 0,0 l/m 4,4 km/h (1 Bft) S 169 0 min 128 W/m 14,4 C 12,9 km/h (3 Bft)
19.09.2018 16:05 25,9 C 49 % 1013,4 hPa 0,0 l/m 3,5 km/h (1 Bft) NW 321 0 min 138 W/m 14,4 C 11,3 km/h (2 Bft)
19.09.2018 16:00 25,8 C 49 % 1013,5 hPa 0,0 l/m 4,1 km/h (1 Bft) S 184 0 min 142 W/m 14,3 C 11,3 km/h (2 Bft)
19.09.2018 15:55 25,8 C 50 % 1013,4 hPa 0,0 l/m 3,2 km/h (1 Bft) S 180 0 min 123 W/m 14,6 C 11,3 km/h (2 Bft)
19.09.2018 15:50 25,8 C 49 % 1013,5 hPa 0,0 l/m 4,9 km/h (1 Bft) NW 321 0 min 90 W/m 14,3 C 11,3 km/h (2 Bft)
19.09.2018 15:45 25,8 C 49 % 1013,5 hPa 0,0 l/m 4,4 km/h (1 Bft) S-SW 198 0 min 101 W/m 14,3 C 14,5 km/h (3 Bft)
19.09.2018 15:40 25,7 C 49 % 1013,5 hPa 0,0 l/m 5,1 km/h (1 Bft) N-NO 12 0 min 92 W/m 14,2 C 14,5 km/h (3 Bft)
19.09.2018 15:35 25,6 C 49 % 1013,6 hPa 0,0 l/m 3,7 km/h (1 Bft) SO 139 0 min 111 W/m 14,1 C 9,7 km/h (2 Bft)
19.09.2018 15:30 25,7 C 49 % 1013,7 hPa 0,0 l/m 5,4 km/h (1 Bft) SW 216 0 min 153 W/m 14,2 C 14,5 km/h (3 Bft)
19.09.2018 15:25 25,6 C 49 % 1013,7 hPa 0,0 l/m 6,0 km/h (2 Bft) SW 222 0 min 94 W/m 14,1 C 20,9 km/h (4 Bft)
19.09.2018 15:20 25,6 C 48 % 1013,8 hPa 0,0 l/m 5,3 km/h (1 Bft) SW 219 0 min 81 W/m 13,8 C 12,9 km/h (3 Bft)
19.09.2018 15:15 25,7 C 48 % 1013,9 hPa 0,0 l/m 5,6 km/h (1 Bft) O-SO 113 0 min 120 W/m 13,9 C 20,9 km/h (4 Bft)
19.09.2018 15:10 25,9 C 48 % 1013,9 hPa 0,0 l/m 5,2 km/h (1 Bft) S 191 5 min 345 W/m 14,0 C 16,1 km/h (3 Bft)
19.09.2018 15:05 26,1 C 48 % 1014,0 hPa 0,0 l/m 3,7 km/h (1 Bft) S-SO 167 5 min 463 W/m 14,2 C 8,0 km/h (2 Bft)
19.09.2018 15:00 26,1 C 48 % 1013,9 hPa 0,0 l/m 3,6 km/h (1 Bft) SW 235 5 min 504 W/m 14,2 C 12,9 km/h (3 Bft)
19.09.2018 14:55 26,3 C 48 % 1014,0 hPa 0,0 l/m 4,9 km/h (1 Bft) S-SW 192 5 min 513 W/m 14,4 C 11,3 km/h (2 Bft)
19.09.2018 14:50 26,1 C 48 % 1013,9 hPa 0,0 l/m 4,9 km/h (1 Bft) S-SW 200 5 min 500 W/m 14,2 C 12,9 km/h (3 Bft)
19.09.2018 14:45 26,2 C 48 % 1014,0 hPa 0,0 l/m 5,5 km/h (1 Bft) S-SW 211 5 min 492 W/m 14,3 C 12,9 km/h (3 Bft)
19.09.2018 14:40 26,3 C 48 % 1014,0 hPa 0,0 l/m 5,3 km/h (1 Bft) S 170 5 min 480 W/m 14,4 C 14,5 km/h (3 Bft)
19.09.2018 14:35 26,3 C 48 % 1014,0 hPa 0,0 l/m 4,2 km/h (1 Bft) S 171 5 min 470 W/m 14,4 C 8,0 km/h (2 Bft)
19.09.2018 14:30 26,3 C 49 % 1014,0 hPa 0,0 l/m 6,4 km/h (2 Bft) S 180 5 min 455 W/m 14,7 C 17,7 km/h (3 Bft)
19.09.2018 14:25 26,4 C 50 % 1014,1 hPa 0,0 l/m 4,8 km/h (1 Bft) S-SW 202 5 min 451 W/m 15,1 C 9,7 km/h (2 Bft)
19.09.2018 14:20 26,4 C 49 % 1014,1 hPa 0,0 l/m 4,8 km/h (1 Bft) SO 135 5 min 443 W/m 14,8 C 14,5 km/h (3 Bft)
19.09.2018 14:15 26,6 C 49 % 1014,2 hPa 0,0 l/m 3,2 km/h (1 Bft) S-SW 202 5 min 464 W/m 15,0 C 17,7 km/h (3 Bft)
19.09.2018 14:10 26,3 C 49 % 1014,1 hPa 0,0 l/m 3,2 km/h (1 Bft) S-SW 202 5 min 492 W/m 14,7 C 12,9 km/h (3 Bft)
19.09.2018 14:05 26,2 C 49 % 1014,2 hPa 0,0 l/m 4,8 km/h (1 Bft) W 270 5 min 526 W/m 14,6 C 11,3 km/h (2 Bft)
19.09.2018 14:00 26,1 C 51 % 1014,4 hPa 0,0 l/m 4,8 km/h (1 Bft) S-SO 157 5 min 497 W/m 15,2 C 14,5 km/h (3 Bft)
19.09.2018 13:55 25,9 C 50 % 1014,6 hPa 0,0 l/m 4,8 km/h (1 Bft) SW 225 5 min 506 W/m 14,7 C 16,1 km/h (3 Bft)
19.09.2018 13:50 26,1 C 51 % 1014,6 hPa 0,0 l/m 3,2 km/h (1 Bft) S 180 5 min 565 W/m 15,2 C 9,7 km/h (2 Bft)
19.09.2018 13:45 25,7 C 53 % 1014,8 hPa 0,0 l/m 4,8 km/h (1 Bft) SW 225 5 min 604 W/m 15,4 C 14,5 km/h (3 Bft)
19.09.2018 13:40 25,6 C 52 % 1015,0 hPa 0,0 l/m 3,2 km/h (1 Bft) S-SW 202 5 min 590 W/m 15,0 C 9,7 km/h (2 Bft)
19.09.2018 13:35 25,5 C 52 % 1015,1 hPa 0,0 l/m 3,2 km/h (1 Bft) S-SO 157 5 min 580 W/m 14,9 C 9,7 km/h (2 Bft)
19.09.2018 13:30 25,2 C 53 % 1015,1 hPa 0,0 l/m 4,8 km/h (1 Bft) S-SO 157 5 min 586 W/m 14,9 C 17,7 km/h (3 Bft)
19.09.2018 13:25 25,2 C 51 % 1015,1 hPa 0,0 l/m 3,2 km/h (1 Bft) W 270 5 min 559 W/m 14,3 C 9,7 km/h (2 Bft)
19.09.2018 13:20 24,9 C 53 % 1015,0 hPa 0,0 l/m 4,8 km/h (1 Bft) S-SW 202 5 min 574 W/m 14,6 C 12,9 km/h (3 Bft)
19.09.2018 13:15 25,1 C 55 % 1014,9 hPa 0,0 l/m 3,2 km/h (1 Bft) W-NW 292 5 min 546 W/m 15,4 C 11,3 km/h (2 Bft)
19.09.2018 13:10 24,8 C 54 % 1014,8 hPa 0,0 l/m 4,8 km/h (1 Bft) W-SW 247 5 min 527 W/m 14,8 C 14,5 km/h (3 Bft)
19.09.2018 13:05 25,1 C 53 % 1014,8 hPa 0,0 l/m 3,2 km/h (1 Bft) S-SW 202 5 min 519 W/m 14,8 C 11,3 km/h (2 Bft)
19.09.2018 13:00 24,9 C 54 % 1015,0 hPa 0,0 l/m 3,2 km/h (1 Bft) SO 135 5 min 480 W/m 14,9 C 9,7 km/h (2 Bft)
_ Min-Zeit 06:40 16:45 17:55 - 21:30 - - - - 01:15 21:30
Minimum _ 16,4 C 47 % 1012,4 hPa - 0,0 km/h (0 Bft) - - - - 12,7 C 0,0 km/h (0 Bft)
_ Max-Zeit 16:50 23:25 13:25 13:00 17:15 - - 13:00 11:25 11:35 15:15
Maximum _ 27,0 C 81 % 1015,1 hPa 0,0 l/m 7,0 km/h
S-SO (2 Bft)
- - 5 min 620 W/m 15,9 C 20,9 km/h
W (4 Bft)
Durchschnitt _ 21,0 C 66 % 1014,2 hPa #0,0 l/m 2,3 km/h (1 Bft) S - #3:00 h 236 W/m 14,2 C 7,4 km/h (2 Bft)